Location: Columbus AFB Auxilary Field
(32.9346°N, 88.5717°W)
Time: 16:39:37
(UTC-05:00)

ISS - Visible Passes

Search period start: 21 March 2019 00:00
Search period end: 31 March 2019 00:00
Orbit: 406 x 411 km, 51.6° (Epoch: 22 March)

Date Brightness Start Highest point End Pass type
(mag) Time Alt. Az. Time Alt. Az. Time Alt. Az.
21 Mar -2.0 20:35:16 10° WSW 20:38:14 30° NW 20:40:03 18° NNE visible
22 Mar -3.3 19:43:54 10° SW 19:47:09 62° NW 19:50:25 10° NE visible
23 Mar -0.9 20:31:09 10° WNW 20:32:57 14° NNW 20:34:46 10° N visible
24 Mar -1.4 19:39:02 10° W 19:41:43 23° NW 19:44:25 10° NNE visible
26 Mar -0.7 19:35:27 10° NW 19:36:26 11° NNW 19:37:26 10° NNW visible
